Zorg en Hoop Airport

Jump to: basic info | weather | comments

Related pages: nearby airports | nearby navaids | notams | map

Basic information (top)

Codes: ORG SMZO
Location: lon 5.811080, lat -55.190701, elev 10 ft / 3 m msl
Status: small_airport

Weather (top)

Current conditions (rec'd 2014/09/23 00:00Z):

SMZO 230000Z 02001KT 9999 FEW015 28/24 Q1011 NOSIG

Airport forecast (rec'd 2014/09/09 00:00Z):

TAF SMZO 082200Z 0900/0924 07005KT 9999 FEW012 SCT035 TX34/0918Z TN25/0910Z 
      TEMPO 0918/0922 09012G25KT 3000 TSRA FEW016CB

Latest comments (top)

KLM flights from Caracas - Paramaribo - Dakar - Madrid - fra: I would like to know if this airport ... [read]

More... (top)

See also NOTAMs and nearby airports and navaids, or visit the Zorg en Hoop Airport page at the main OurAirports website..